Tank 1 Data Log     Home

ID Sensor Location Level (%) Temp Hum Vin Level (cm) Log Time
213532 Tank1 Siffie48 99 19.2 100 2.1 19 2026-05-03 01:24:02
213531 Tank1 Siffie48 99 19.1 100 2.1 19 2026-05-03 01:08:56
213530 Tank1 Siffie48 99 19.1 100 2.1 19 2026-05-03 00:53:50
213529 Tank1 Siffie48 99 19.2 100 2.1 19 2026-05-03 00:38:45
213528 Tank1 Siffie48 99 19.2 100 2.1 19 2026-05-03 00:23:39
213527 Tank1 Siffie48 99 19.2 100 2.1 19 2026-05-03 00:08:33
213526 Tank1 Siffie48 99 19.2 100 2.1 19 2026-05-02 23:53:28
213525 Tank1 Siffie48 99 19.4 100 2.1 19 2026-05-02 23:38:22
213524 Tank1 Siffie48 99 19.4 100 2.1 19 2026-05-02 23:23:16
213523 Tank1 Siffie48 99 19.5 100 2.1 19 2026-05-02 23:08:11
213522 Tank1 Siffie48 99 19.5 100 2.1 19 2026-05-02 22:53:05
213521 Tank1 Siffie48 99 19.6 100 2.0 19 2026-05-02 22:37:59
213520 Tank1 Siffie48 99 19.5 100 2.1 19 2026-05-02 22:22:51
213519 Tank1 Siffie48 99 19.7 100 2.1 19 2026-05-02 21:52:34
213518 Tank1 Siffie48 99 19.5 100 2.1 19 2026-05-02 21:37:29
213517 Tank1 Siffie48 99 19.4 100 2.1 19 2026-05-02 21:22:15
213516 Tank1 Siffie48 99 19.4 100 2.1 19 2026-05-02 21:07:06
213515 Tank1 Siffie48 99 19.2 100 2.1 19 2026-05-02 20:52:01
213514 Tank1 Siffie48 99 18.9 100 2.1 19 2026-05-02 20:36:55
213513 Tank1 Siffie48 99 18.8 100 2.1 19 2026-05-02 20:21:49
213512 Tank1 Siffie48 99 18.9 100 2.1 19 2026-05-02 20:06:44
213511 Tank1 Siffie48 99 19.0 100 2.1 19 2026-05-02 19:51:35
213510 Tank1 Siffie48 99 19.1 100 2.1 19 2026-05-02 19:36:30
213509 Tank1 Siffie48 99 19.2 100 2.1 19 2026-05-02 19:21:24
213508 Tank1 Siffie48 99 19.4 100 2.1 19 2026-05-02 19:06:18
213507 Tank1 Siffie48 99 19.5 100 2.1 19 2026-05-02 18:51:13
213506 Tank1 Siffie48 99 19.5 100 2.1 19 2026-05-02 18:36:04
213505 Tank1 Siffie48 99 19.7 100 2.1 19 2026-05-02 18:20:58
213504 Tank1 Siffie48 99 19.8 100 2.1 19 2026-05-02 18:05:53
213503 Tank1 Siffie48 99 19.8 100 2.1 19 2026-05-02 17:50:47
213502 Tank1 Siffie48 99 19.8 100 2.1 19 2026-05-02 17:35:42
213501 Tank1 Siffie48 99 19.8 100 2.1 19 2026-05-02 17:20:36
213500 Tank1 Siffie48 99 19.8 100 2.1 19 2026-05-02 17:05:30
213499 Tank1 Siffie48 99 19.8 100 2.1 19 2026-05-02 16:50:25
213498 Tank1 Siffie48 99 19.8 100 2.1 19 2026-05-02 16:35:19
213497 Tank1 Siffie48 99 19.9 100 2.1 19 2026-05-02 16:20:13
213496 Tank1 Siffie48 99 20.1 100 2.1 19 2026-05-02 16:05:08
213495 Tank1 Siffie48 99 20.2 100 2.1 19 2026-05-02 15:50:02
213494 Tank1 Siffie48 99 20.1 100 2.1 19 2026-05-02 15:34:56
213493 Tank1 Siffie48 99 19.8 100 2.1 19 2026-05-02 15:19:51
213492 Tank1 Siffie48 99 19.8 100 2.1 19 2026-05-02 15:04:45
213491 Tank1 Siffie48 99 19.8 100 2.1 19 2026-05-02 14:49:39
213490 Tank1 Siffie48 99 19.7 100 2.1 19 2026-05-02 14:34:34
213489 Tank1 Siffie48 99 19.5 100 2.1 19 2026-05-02 14:19:28
213488 Tank1 Siffie48 99 19.5 100 2.1 19 2026-05-02 14:04:22
213487 Tank1 Siffie48 99 19.5 100 2.1 19 2026-05-02 13:49:17
213486 Tank1 Siffie48 99 19.5 100 2.1 19 2026-05-02 13:34:11
213485 Tank1 Siffie48 99 19.6 100 2.1 19 2026-05-02 13:19:05
213484 Tank1 Siffie48 99 19.7 100 2.1 19 2026-05-02 13:04:00
213483 Tank1 Siffie48 99 19.7 100 2.1 19 2026-05-02 12:48:54
213482 Tank1 Siffie48 99 19.7 100 2.1 19 2026-05-02 12:33:48
213481 Tank1 Siffie48 99 19.6 100 2.1 19 2026-05-02 12:18:43
213480 Tank1 Siffie48 99 19.5 100 2.1 19 2026-05-02 12:03:37
213479 Tank1 Siffie48 99 19.6 100 2.1 19 2026-05-02 11:48:31
213478 Tank1 Siffie48 99 19.6 100 2.1 19 2026-05-02 11:33:26
213477 Tank1 Siffie48 99 19.2 100 2.1 19 2026-05-02 11:18:20
213476 Tank1 Siffie48 99 19.1 100 2.1 19 2026-05-02 11:03:14
213475 Tank1 Siffie48 99 18.9 100 2.1 19 2026-05-02 10:48:09
213474 Tank1 Siffie48 99 18.8 100 2.1 19 2026-05-02 10:33:03
213473 Tank1 Siffie48 99 18.7 100 2.1 19 2026-05-02 10:17:57
213472 Tank1 Siffie48 99 18.5 100 2.1 19 2026-05-02 10:02:52
213471 Tank1 Siffie48 99 18.6 100 2.1 19 2026-05-02 09:47:46
213470 Tank1 Siffie48 99 18.7 100 2.1 19 2026-05-02 09:32:40
213469 Tank1 Siffie48 99 18.7 100 2.1 19 2026-05-02 09:17:35
213468 Tank1 Siffie48 99 18.6 100 2.1 19 2026-05-02 09:02:29
213467 Tank1 Siffie48 99 18.4 100 2.1 19 2026-05-02 08:47:24
213466 Tank1 Siffie48 99 18.4 100 2.1 19 2026-05-02 08:32:18
213465 Tank1 Siffie48 99 18.2 100 2.1 19 2026-05-02 08:17:12
213464 Tank1 Siffie48 99 18.1 100 2.1 19 2026-05-02 08:02:07
213463 Tank1 Siffie48 99 18.0 100 2.1 19 2026-05-02 07:47:01
213462 Tank1 Siffie48 99 18.0 100 2.1 19 2026-05-02 07:31:55
213461 Tank1 Siffie48 99 18.3 100 2.1 19 2026-05-02 07:16:50
213460 Tank1 Siffie48 99 18.4 100 2.1 19 2026-05-02 07:01:44
213459 Tank1 Siffie48 99 18.3 100 2.1 19 2026-05-02 06:46:38
213458 Tank1 Siffie48 99 18.1 100 2.1 19 2026-05-02 06:31:32
213457 Tank1 Siffie48 99 18.1 100 2.1 19 2026-05-02 06:16:27
213456 Tank1 Siffie48 99 18.0 100 2.1 19 2026-05-02 06:01:21
213455 Tank1 Siffie48 99 18.2 100 2.1 19 2026-05-02 05:46:16
213454 Tank1 Siffie48 99 18.2 100 2.1 19 2026-05-02 05:31:10
213453 Tank1 Siffie48 99 18.3 100 2.1 19 2026-05-02 05:16:04
213452 Tank1 Siffie48 99 18.2 100 2.1 19 2026-05-02 05:00:59
213451 Tank1 Siffie48 99 18.0 100 2.1 19 2026-05-02 04:45:53
213450 Tank1 Siffie48 99 18.0 100 2.1 19 2026-05-02 04:30:47
213449 Tank1 Siffie48 99 18.1 100 2.1 19 2026-05-02 04:15:42
213448 Tank1 Siffie48 99 18.1 100 2.1 19 2026-05-02 04:00:36
213447 Tank1 Siffie48 99 18.0 100 2.1 19 2026-05-02 03:45:30
213446 Tank1 Siffie48 99 17.9 100 2.1 19 2026-05-02 03:30:25
213445 Tank1 Siffie48 99 17.9 100 2.1 19 2026-05-02 03:15:19
213444 Tank1 Siffie48 99 18.0 100 2.1 19 2026-05-02 03:00:13
213443 Tank1 Siffie48 99 18.1 100 2.1 19 2026-05-02 02:45:08
213442 Tank1 Siffie48 99 18.3 100 2.1 19 2026-05-02 02:30:02
213441 Tank1 Siffie48 99 18.4 100 2.1 19 2026-05-02 02:14:56
213440 Tank1 Siffie48 99 18.2 100 2.1 19 2026-05-02 01:59:50
213439 Tank1 Siffie48 99 18.3 100 2.0 19 2026-05-02 01:44:45
213438 Tank1 Siffie48 99 18.5 100 2.1 19 2026-05-02 01:29:39
213437 Tank1 Siffie48 99 18.7 100 2.1 19 2026-05-02 01:14:33
213436 Tank1 Siffie48 99 18.7 100 2.0 19 2026-05-02 00:59:28
213435 Tank1 Siffie48 99 18.7 100 2.1 19 2026-05-02 00:44:22
213434 Tank1 Siffie48 99 18.7 100 2.1 19 2026-05-02 00:29:16
213433 Tank1 Siffie48 99 18.6 100 2.1 19 2026-05-02 00:14:11